Retour au catalogue

STARLINK-5011

ActifCommunicationsVLEO
NORAD 53925·PAYLOAD·🇺🇸 United States

Lancé Sep 24, 2022 depuis Cape Canaveral Space Force Station

Loading…

Prochains Passages (prochaines 24 heures)

TLE

FraisSource: CelesTrak SupGP

Époque: Sep 14, 2026, 22:01 UTC

1 53925C 22119AR  26257.91784722 -.00024903  00000+0 -15618-2 0  2570
2 53925  53.1591 183.6122 0001415  92.6466  52.1678 15.08844872    14

Suivez STARLINK-5011 en temps réel avec AllMySat

Download on the App Store